AirNav   Duncan Aviation - Near you to keep you flying
 
 1361 users online  

3LL9 Compton Airport
Pocahontas, Illinois, USA

GOING TO POCAHONTAS?


FAA INFORMATION EFFECTIVE 01 DECEMBER 2022

Location

FAA Identifier: 3LL9
Lat/Long: 38-48-15.0000N 089-36-32.0000W
38-48.250000N 089-36.533333W
38.8041667,-89.6088889
(estimated)
Elevation: 535 ft. / 163 m
From city: 2 miles SW of POCAHONTAS, IL
Time zone: UTC -6 (UTC -5 during Daylight Saving Time)
Zip code: 62275

Airport Operations

Airport use: Private use. Permission required prior to landing
Activation date: 05/2004
Control tower: no
ARTCC: KANSAS CITY CENTER
FSS: COLUMBIA FLIGHT SERVICE STATION
Attendance: UNATNDD
Segmented circle: no

Airport Communications

WX AWOS-AV at GRE (11 nm E): 123.05 (618-664-1939)

Nearby radio navigation aids

VOR radial/distance  VOR name  Freq  Var
TOYr071/15.0TROY VORTAC116.0004E
VLAr226/27.1VANDALIA VOR/DME114.3004E
ENLr314/31.2CENTRALIA VORTAC115.0004E

Airport Services

Runway Information

Runway 15/33

Dimensions: 1600 x 100 ft. / 488 x 30 m
Surface: turf
RUNWAY 15  RUNWAY 33
Traffic pattern: leftright
Obstructions: 45 ft. trees, 900 ft. from runway24 ft. pline, 366 ft. from runway

Airport Ownership and Management from official FAA records

Ownership: Privately-owned
Owner: DELMAR D. COMPTON JR.
14229 LANDOLT ROAD
POCAHONTAS, IL 62275
Phone (618) 567-1237
Manager: DELMAR D. COMPTON JR.
14229 LANDOLT ROAD
POCAHONTAS, IL 62275
Phone (618) 567-1237

Airport Operational Statistics

Aircraft based on the field: 1
Single engine airplanes: 1
    

Additional Remarks

FOR CD CTC ST LOUIS APCH AT 314-890-1018.

Instrument Procedures

There are no published instrument procedures at 3LL9.

Some nearby airports with instrument procedures:

KGRE - Greenville Airport (11 nm E)
KBLV - Scott Air Force Base/MidAmerica Airport (19 nm SW)
KALN - St Louis Regional Airport (21 nm W)
3LF - Litchfield Municipal Airport (22 nm N)
KVLA - Vandalia Municipal Airport (24 nm NE)
 
Loc | Ops | Rwys | IFR | FBO | Links
Com | Nav | Svcs | Stats | Notes
Area around 3LL9 (Compton Airport)
 
Road maps at: MapQuest Bing Google
 
Aerial photo
No photo
 
Sectional chart

 
Airport distance calculator
Flying to Compton Airport? Find the distance to fly.

From to 3LL9

Sunrise and sunset
Times for 07-Dec-2022
 Local
(UTC-6)
 Zulu
(UTC)
Morning civil twilight06:3512:35
Sunrise07:0413:04
Sunset16:3522:35
Evening civil twilight17:0523:05

Current date and time
Zulu (UTC)  07-Dec-2022 14:15:44
Local (UTC-6)  07-Dec-2022 08:15:44
 
METAR
KBLV 
19nm SW 
071355Z 35003KT 2 3/4SM BR BKN029 OVC034 08/08 A3021 RMK AO2A VIS 2 1/4 RWY14L BKN V OVC SLPNO ALSTG ESTMD RVRNO TSNO $
KALN 
20nm W 
071350Z VRB03KT 2 1/2SM BR OVC027 07/06 A3022
K3LF 
22nm N 
071355Z AUTO 00000KT 4SM BR OVC031 05/05 A3023 RMK AO2 T00510045
KCPS 
29nm SW 
071353Z 02003KT 7SM OVC029 08/07 A3023 RMK AO2 SLP236 T00780067
KSTL 
36nm W 
071351Z 00000KT 2 1/2SM BR OVC026 08/06 A3022 RMK AO2 SLP238 T00780061
TAF
KBLV 
19nm SW 
070800Z 0708/0814 03006KT 3200 BR OVC003 QNH3008INS BECMG 0715/0716 35006KT 8000 BR SCT003 OVC006 QNH3024INS BECMG 0721/0722 36006KT 9000 BR SCT006 OVC015 QNH3025INS BECMG 0801/0802 01006KT 8000 BR BKN006 OVC015 QNH3024INS TX11/0720Z TN07/0711Z
NOTAMs
Click for the latest NOTAMs
NOTAMs are issued by the DoD/FAA and will open in a separate window not controlled by AirNav.

 

 
 

Would you like to see your business listed on this page?

 If your business provides an interesting product or service to pilots, flight crews, aircraft, or users of the Compton Airport, you should consider listing it here.  To start the listing process, click on the button below
 
Add a business
 

Other Pages about Compton Airport

Update a link
 
Copyright © AirNav, LLC. All rights reserved. Privacy Policy  Contact